Torna al catalogo

TRAILBLAZER 2

AttivoScienzaLEO
NORAD 27609·PAYLOAD·🇺🇸 United States

Lanciato Dec 20, 2002 da Baikonur Cosmodrome

Loading…

Prossimi Passaggi (prossime 24 ore)

TLE

AggiornatoSource: Space-Track

Epoca: Sep 14, 2026, 11:03 UTC

1 27609U 02058E   26257.46044988  .00000213  00000-0  45534-4 0  9995
2 27609  64.5548  61.3598 0042678 231.5601 128.1671 14.81398226280915

Traccia TRAILBLAZER 2 in tempo reale con AllMySat

Download on the App Store